e   0.4997578      Incl.    9.48849     -0.46901924     -0.14135741

P   5.52

From 231 observations 1994-2005, mean residual 0".91.

   Nongravitational parameters A1 = +2.28 +/- 0.03, A2 = -0.3124 +/- 0.0014,

   A3 = -0.23 +/- 0.02.



Date/        TT  R.A.(2000) Decl.     Delta   r     Daily motion  Mag.  Moon Age

              h    h  m       。  ,                      ,  / PA 。  m1      。

2005 Dec. 30 18  14 20.96  -07 13.1   2.365  2.125    30.7 / 110  16.4   59  .00

          31 18  14 22.90  -07 23.5   2.350  2.119    30.8 / 110  16.4   73  .01

2006 Jan.  1 18  14 24.85  -07 33.9   2.334  2.114    30.8 / 110  16.3   88  .04

           2 18  14 26.81  -07 44.2   2.319  2.108    30.9 / 110  16.3  102  .10

           3 18  14 28.76  -07 54.5   2.304  2.103    30.9 / 109  16.3  116  .18

           4 18  14 30.73  -08 04.8   2.288  2.097    30.9 / 109  16.2  130  .28

           5 18  14 32.69  -08 15.1   2.273  2.092    31.0 / 109  16.2  143  .38

           6 18  14 34.66  -08 25.3   2.257  2.086    31.0 / 109  16.2  156  .50

           7 18  14 36.64  -08 35.5   2.242  2.081    31.1 / 109  16.1  167  .60

           8 18  14 38.62  -08 45.6   2.226  2.075    31.1 / 109  16.1  170  .71

           9 18  14 40.60  -08 55.7   2.211  2.070    31.1 / 109  16.0  162  .80

          10 18  14 42.59  -09 05.8   2.195  2.065    31.2 / 109  16.0  151  .87

          11 18  14 44.58  -09 15.8   2.180  2.059    31.2 / 109  16.0  139  .93

          12 18  14 46.58  -09 25.8   2.164  2.054    31.3 / 109  15.9  127  .97

          13 18  14 48.58  -09 35.8   2.149  2.048    31.3 / 109  15.9  116  .99

          14 18  14 50.59  -09 45.7   2.134  2.043    31.3 / 108  15.9  104 1.00

          15 18  14 52.60  -09 55.6   2.118  2.038    31.4 / 108  15.8   93  .98

          16 18  14 54.62  -10 05.5   2.103  2.032    31.4 / 108  15.8   82  .95

          17 18  14 56.64  -10 15.3   2.088  2.027    31.5 / 108  15.7   71  .90

          18 18  14 58.67  -10 25.1   2.072  2.022    31.5 / 108  15.7   60  .84

          19 18  15 00.70  -10 34.8   2.057  2.016    31.5 / 108  15.7   49  .76

          20 18  15 02.73  -10 44.5   2.042  2.011    31.6 / 108  15.6   37  .68

          21 18  15 04.77  -10 54.2   2.026  2.006    31.6 / 108  15.6   27  .59

          22 18  15 06.81  -11 03.8   2.011  2.000    31.6 / 108  15.5   16  .49

          23 18  15 08.86  -11 13.4   1.996  1.995    31.7 / 108  15.5   10  .39

          24 18  15 10.92  -11 22.9   1.981  1.990    31.7 / 107  15.5   15  .29

          25 18  15 12.97  -11 32.4   1.966  1.985    31.7 / 107  15.4   26  .20

          26 18  15 15.03  -11 41.8   1.950  1.979    31.8 / 107  15.4   39  .11

          27 18  15 17.10  -11 51.3   1.935  1.974    31.8 / 107  15.3   53  .05

          28 18  15 19.17  -12 00.6   1.920  1.969    31.8 / 107  15.3   67  .01

          29 18  15 21.24  -12 09.9   1.905  1.964    31.8 / 107  15.3   81  .00

          30 18  15 23.32  -12 19.2   1.890  1.959    31.9 / 107  15.2   96  .02

          31 18  15 25.40  -12 28.5   1.875  1.953    31.9 / 107  15.2  110  .07

     Feb.  1 18  15 27.49  -12 37.7   1.860  1.948    31.9 / 107  15.1  124  .14

NAKANO

         **** Don't distribute anyone except personal use only ****

                (C) Copyright 2005 OAA/ComputingSection

write mail from CFAD0::NAKANO on 2005-12-31 05:11:25(JST).

 



  71P/Clark 

Epoch 2000 Dec. 2.0 TT = JDT 2451880.5  

T 2000 Dec. 2.03032 TT                                  Nakano

q   1.5591659            (2000.0)            P               Q

n   0.17868474     Peri.  208.84213     -0.03126006     +0.98931174

a   3.1218431      Node    59.69359     -0.88246659     +0.03959299

e   0.5005624      Incl.    9.49554     -0.46933519     -0.14033774

P   5.52

From 222 observations 1994-2001, mean residual 0".75.  Nongravitational

   parameters A1 = +0.78 +/- 0.07, A2 = +0.2261 +/- 0.0244, A3 = -0.26 +/- 0.02.



NAKANO

         **** Don't distribute anyone except personal use only ****

                (C) Copyright 2001 OAA/ComputingSection

write mail from CFAD0::NAKANO on 2001-10-29 22:52:42(JST).

 



戻ります。